Year,Month,Day,Hour,Minute,Value (Times are PST for temperature in C)
2020,01,27,00,00,6.60
2020,01,27,00,01,6.60
2020,01,27,00,02,6.50
2020,01,27,00,03,6.50
2020,01,27,00,04,6.40
2020,01,27,00,05,6.40
2020,01,27,00,06,6.40
2020,01,27,00,07,6.40
2020,01,27,00,08,6.40
2020,01,27,00,09,6.40
2020,01,27,00,10,6.30
2020,01,27,00,11,6.30
2020,01,27,00,12,6.30
2020,01,27,00,13,6.30
2020,01,27,00,14,6.30
2020,01,27,00,15,6.30
2020,01,27,00,16,6.30
2020,01,27,00,17,6.30
2020,01,27,00,18,6.30
2020,01,27,00,19,6.30
2020,01,27,00,20,6.40
2020,01,27,00,21,6.40
2020,01,27,00,22,6.50
2020,01,27,00,23,6.50
2020,01,27,00,24,6.60
2020,01,27,00,25,6.70
2020,01,27,00,26,6.80
2020,01,27,00,27,6.90
2020,01,27,00,28,7.00
2020,01,27,00,29,7.10
2020,01,27,00,30,7.20
2020,01,27,00,31,7.40
2020,01,27,00,32,7.50
2020,01,27,00,33,7.60
2020,01,27,00,34,7.60
2020,01,27,00,35,7.60
2020,01,27,00,36,7.60
2020,01,27,00,37,7.60
2020,01,27,00,38,7.60
2020,01,27,00,39,7.60
2020,01,27,00,40,7.60
2020,01,27,00,41,7.60
2020,01,27,00,42,7.50
2020,01,27,00,43,7.50
2020,01,27,00,44,7.50
2020,01,27,00,45,7.40
2020,01,27,00,46,7.30
2020,01,27,00,47,7.30
2020,01,27,00,48,7.20
2020,01,27,00,49,7.20
2020,01,27,00,50,7.10
2020,01,27,00,51,7.10
2020,01,27,00,52,7.10
2020,01,27,00,53,7.10
2020,01,27,00,54,7.10
2020,01,27,00,55,7.10
2020,01,27,00,56,7.20
2020,01,27,00,57,7.20
2020,01,27,00,58,7.20
2020,01,27,00,59,7.20
2020,01,27,01,00,7.20
2020,01,27,01,01,7.20
2020,01,27,01,02,7.20
2020,01,27,01,03,7.20
2020,01,27,01,04,7.20
2020,01,27,01,05,7.20
2020,01,27,01,06,7.20
2020,01,27,01,07,7.20
2020,01,27,01,08,7.20
2020,01,27,01,09,7.20
2020,01,27,01,10,7.20
2020,01,27,01,11,7.20
2020,01,27,01,12,7.10
2020,01,27,01,13,7.10
2020,01,27,01,14,7.10
2020,01,27,01,15,7.00
2020,01,27,01,16,7.00
2020,01,27,01,17,6.90
2020,01,27,01,18,6.90
2020,01,27,01,19,6.80
2020,01,27,01,20,6.80
2020,01,27,01,21,6.80
2020,01,27,01,22,6.80
2020,01,27,01,23,6.70
2020,01,27,01,24,6.70
2020,01,27,01,25,6.70
2020,01,27,01,26,6.70
2020,01,27,01,27,6.70
2020,01,27,01,28,6.70
2020,01,27,01,29,6.60
2020,01,27,01,30,6.60
2020,01,27,01,31,6.60
2020,01,27,01,32,6.60
2020,01,27,01,33,6.60
2020,01,27,01,34,6.50
2020,01,27,01,35,6.50
2020,01,27,01,36,6.50
2020,01,27,01,37,6.40
2020,01,27,01,38,6.40
2020,01,27,01,39,6.40
2020,01,27,01,40,6.30
2020,01,27,01,41,6.30
2020,01,27,01,42,6.30
2020,01,27,01,43,6.40
2020,01,27,01,44,6.40
2020,01,27,01,45,6.50
2020,01,27,01,46,6.60
2020,01,27,01,47,6.70
2020,01,27,01,48,6.70
2020,01,27,01,49,6.70
2020,01,27,01,50,6.80
2020,01,27,01,51,6.80
2020,01,27,01,52,6.70
2020,01,27,01,53,6.70
2020,01,27,01,54,6.70
2020,01,27,01,55,6.70
2020,01,27,01,56,6.70
2020,01,27,01,57,6.60
2020,01,27,01,58,6.60
2020,01,27,01,59,6.60
2020,01,27,02,00,6.50
2020,01,27,02,01,6.50
2020,01,27,02,02,6.50
2020,01,27,02,03,6.50
2020,01,27,02,04,6.50
2020,01,27,02,05,6.60
2020,01,27,02,06,6.60
2020,01,27,02,07,6.60
2020,01,27,02,08,6.60
2020,01,27,02,09,6.60
2020,01,27,02,10,6.60
2020,01,27,02,11,6.70
2020,01,27,02,12,6.70
2020,01,27,02,13,6.70
2020,01,27,02,14,6.70
2020,01,27,02,15,6.70
2020,01,27,02,16,6.70
2020,01,27,02,17,6.70
2020,01,27,02,18,6.70
2020,01,27,02,19,6.70
2020,01,27,02,20,6.80
2020,01,27,02,21,6.80
2020,01,27,02,22,6.80
2020,01,27,02,23,6.80
2020,01,27,02,24,6.70
2020,01,27,02,25,6.70
2020,01,27,02,26,6.60
2020,01,27,02,27,6.60
2020,01,27,02,28,6.70
2020,01,27,02,29,6.70
2020,01,27,02,30,6.80
2020,01,27,02,31,6.80
2020,01,27,02,32,6.90
2020,01,27,02,33,6.90
2020,01,27,02,34,6.90
2020,01,27,02,35,6.90
2020,01,27,02,36,6.90
2020,01,27,02,37,7.00
2020,01,27,02,38,7.00
2020,01,27,02,39,7.00
2020,01,27,02,40,7.10
2020,01,27,02,41,7.10
2020,01,27,02,42,7.10
2020,01,27,02,43,7.10
2020,01,27,02,44,7.10
2020,01,27,02,45,7.10
2020,01,27,02,46,7.10
2020,01,27,02,47,7.00
2020,01,27,02,48,6.90
2020,01,27,02,49,6.90
2020,01,27,02,50,6.80
2020,01,27,02,51,6.70
2020,01,27,02,52,6.70
2020,01,27,02,53,6.60
2020,01,27,02,54,6.50
2020,01,27,02,55,6.50
2020,01,27,02,56,6.50
2020,01,27,02,57,6.50
2020,01,27,02,58,6.50
2020,01,27,02,59,6.50
2020,01,27,03,00,6.50
2020,01,27,03,01,6.60
2020,01,27,03,02,6.60
2020,01,27,03,03,6.60
2020,01,27,03,04,6.60
2020,01,27,03,05,6.60
2020,01,27,03,06,6.60
2020,01,27,03,07,6.60
2020,01,27,03,08,6.60
2020,01,27,03,09,6.60
2020,01,27,03,10,6.60
2020,01,27,03,11,6.60
2020,01,27,03,12,6.60
2020,01,27,03,13,6.60
2020,01,27,03,14,6.60
2020,01,27,03,15,6.60
2020,01,27,03,16,6.60
2020,01,27,03,17,6.60
2020,01,27,03,18,6.50
2020,01,27,03,19,6.50
2020,01,27,03,20,6.50
2020,01,27,03,21,6.50
2020,01,27,03,22,6.50
2020,01,27,03,23,6.50
2020,01,27,03,24,6.50
2020,01,27,03,25,6.60
2020,01,27,03,26,6.60
2020,01,27,03,27,6.60
2020,01,27,03,28,6.60
2020,01,27,03,29,6.70
2020,01,27,03,30,6.70
2020,01,27,03,31,6.70
2020,01,27,03,32,6.70
2020,01,27,03,33,6.80
2020,01,27,03,34,6.70
2020,01,27,03,35,6.70
2020,01,27,03,36,6.70
2020,01,27,03,37,6.70
2020,01,27,03,38,6.70
2020,01,27,03,39,6.80
2020,01,27,03,40,6.80
2020,01,27,03,41,6.90
2020,01,27,03,42,6.90
2020,01,27,03,43,7.00
2020,01,27,03,44,6.90
2020,01,27,03,45,6.90
2020,01,27,03,46,6.90
2020,01,27,03,47,6.80
2020,01,27,03,48,6.70
2020,01,27,03,49,6.60
2020,01,27,03,50,6.60
2020,01,27,03,51,6.60
2020,01,27,03,52,6.50
2020,01,27,03,53,6.40
2020,01,27,03,54,6.40
2020,01,27,03,55,6.40
2020,01,27,03,56,6.30
2020,01,27,03,57,6.30
2020,01,27,03,58,6.30
2020,01,27,03,59,6.30
2020,01,27,04,00,6.30
2020,01,27,04,01,6.30
2020,01,27,04,02,6.30
2020,01,27,04,03,6.30
2020,01,27,04,04,6.30
2020,01,27,04,05,6.30
2020,01,27,04,06,6.30
2020,01,27,04,07,6.30
2020,01,27,04,08,6.30
2020,01,27,04,09,6.30
2020,01,27,04,10,6.30
2020,01,27,04,11,6.20
2020,01,27,04,12,6.20
2020,01,27,04,13,6.20
2020,01,27,04,14,6.10
2020,01,27,04,15,6.10
2020,01,27,04,16,6.10
2020,01,27,04,17,6.00
2020,01,27,04,18,6.00
2020,01,27,04,19,5.90
2020,01,27,04,20,5.80
2020,01,27,04,21,5.80
2020,01,27,04,22,5.70
2020,01,27,04,23,5.60
2020,01,27,04,24,5.60
2020,01,27,04,25,5.60
2020,01,27,04,26,5.60
2020,01,27,04,27,5.60
2020,01,27,04,28,5.60
2020,01,27,04,29,5.60
2020,01,27,04,30,5.60
2020,01,27,04,31,5.70
2020,01,27,04,32,5.70
2020,01,27,04,33,5.70
2020,01,27,04,34,5.70
2020,01,27,04,35,5.70
2020,01,27,04,36,5.70
2020,01,27,04,37,5.70
2020,01,27,04,38,5.70
2020,01,27,04,39,5.70
2020,01,27,04,40,5.70
2020,01,27,04,41,5.70
2020,01,27,04,42,5.70
2020,01,27,04,43,5.60
2020,01,27,04,44,5.60
2020,01,27,04,45,5.50
2020,01,27,04,46,5.40
2020,01,27,04,47,5.30
2020,01,27,04,48,5.30
2020,01,27,04,49,5.20
2020,01,27,04,50,5.20
2020,01,27,04,51,5.10
2020,01,27,04,52,5.00
2020,01,27,04,53,4.90
2020,01,27,04,54,4.90
2020,01,27,04,55,4.80
2020,01,27,04,56,4.80
2020,01,27,04,57,4.80
2020,01,27,04,58,4.80
2020,01,27,04,59,4.80
2020,01,27,05,00,4.90
2020,01,27,05,01,5.00
2020,01,27,05,02,5.10
2020,01,27,05,03,5.10
2020,01,27,05,04,5.20
2020,01,27,05,05,5.20
2020,01,27,05,06,5.10
2020,01,27,05,07,5.10
2020,01,27,05,08,5.00
2020,01,27,05,09,5.00
2020,01,27,05,10,5.00
2020,01,27,05,11,4.90
2020,01,27,05,12,4.90
2020,01,27,05,13,4.80
2020,01,27,05,14,4.70
2020,01,27,05,15,4.70
2020,01,27,05,16,4.60
2020,01,27,05,17,4.60
2020,01,27,05,18,4.50
2020,01,27,05,19,4.40
2020,01,27,05,20,4.40
2020,01,27,05,21,4.30
2020,01,27,05,22,4.30
2020,01,27,05,23,4.30
2020,01,27,05,24,4.30
2020,01,27,05,25,4.30
2020,01,27,05,26,4.20
2020,01,27,05,27,4.20
2020,01,27,05,28,4.10
2020,01,27,05,29,4.10
2020,01,27,05,30,4.10
2020,01,27,05,31,4.10
2020,01,27,05,32,4.10
2020,01,27,05,33,4.20
2020,01,27,05,34,4.20
2020,01,27,05,35,4.20
2020,01,27,05,36,4.20
2020,01,27,05,37,4.20
2020,01,27,05,38,4.10
2020,01,27,05,39,4.10
2020,01,27,05,40,4.10
2020,01,27,05,41,4.00
2020,01,27,05,42,3.90
2020,01,27,05,43,3.80
2020,01,27,05,44,3.80
2020,01,27,05,45,3.80
2020,01,27,05,46,3.80
2020,01,27,05,47,3.80
2020,01,27,05,48,4.00
2020,01,27,05,49,4.20
2020,01,27,05,50,4.40
2020,01,27,05,51,4.50
2020,01,27,05,52,4.60
2020,01,27,05,53,4.70
2020,01,27,05,54,4.70
2020,01,27,05,55,4.60
2020,01,27,05,56,4.60
2020,01,27,05,57,4.60
2020,01,27,05,58,4.60
2020,01,27,05,59,4.60
2020,01,27,06,00,4.50
2020,01,27,06,01,4.50
2020,01,27,06,02,4.50
2020,01,27,06,03,4.50
2020,01,27,06,04,4.50
2020,01,27,06,05,4.50
2020,01,27,06,06,4.50
2020,01,27,06,07,4.50
2020,01,27,06,08,4.60
2020,01,27,06,09,4.60
2020,01,27,06,10,4.70
2020,01,27,06,11,4.70
2020,01,27,06,12,4.70
2020,01,27,06,13,4.60
2020,01,27,06,14,4.60
2020,01,27,06,15,4.60
2020,01,27,06,16,4.50
2020,01,27,06,17,4.40
2020,01,27,06,18,4.40
2020,01,27,06,19,4.40
2020,01,27,06,20,4.40
2020,01,27,06,21,4.30
2020,01,27,06,22,4.40
2020,01,27,06,23,4.40
2020,01,27,06,24,4.30
2020,01,27,06,25,4.30
2020,01,27,06,26,4.40
2020,01,27,06,27,4.30
2020,01,27,06,28,4.30
2020,01,27,06,29,4.30
2020,01,27,06,30,4.30
2020,01,27,06,31,4.30
2020,01,27,06,32,4.30
2020,01,27,06,33,4.20
2020,01,27,06,34,4.20
2020,01,27,06,35,4.20
2020,01,27,06,36,4.10
2020,01,27,06,37,4.10
2020,01,27,06,38,4.10
2020,01,27,06,39,4.00
2020,01,27,06,40,3.90
2020,01,27,06,41,3.80
2020,01,27,06,42,3.70
2020,01,27,06,43,3.70
2020,01,27,06,44,3.60
2020,01,27,06,45,3.60
2020,01,27,06,46,3.60
2020,01,27,06,47,3.50
2020,01,27,06,48,3.50
2020,01,27,06,49,3.50
2020,01,27,06,50,3.40
2020,01,27,06,51,3.30
2020,01,27,06,52,3.30
2020,01,27,06,53,3.20
2020,01,27,06,54,3.20
2020,01,27,06,55,3.10
2020,01,27,06,56,3.10
2020,01,27,06,57,3.10
2020,01,27,06,58,3.10
2020,01,27,06,59,3.10
2020,01,27,07,00,3.10
2020,01,27,07,01,3.00
2020,01,27,07,02,2.90
2020,01,27,07,03,2.90
2020,01,27,07,04,2.90
2020,01,27,07,05,3.00
2020,01,27,07,06,3.10
2020,01,27,07,07,3.10
2020,01,27,07,08,3.20
2020,01,27,07,09,3.20
2020,01,27,07,10,3.30
2020,01,27,07,11,3.30
2020,01,27,07,12,3.30
2020,01,27,07,13,3.30
2020,01,27,07,14,3.30
2020,01,27,07,15,3.30
2020,01,27,07,16,3.30
2020,01,27,07,17,3.30
2020,01,27,07,18,3.30
2020,01,27,07,19,3.20
2020,01,27,07,20,3.20
2020,01,27,07,21,3.20
2020,01,27,07,22,3.20
2020,01,27,07,23,3.20
2020,01,27,07,24,3.10
2020,01,27,07,25,3.10
2020,01,27,07,26,3.10
2020,01,27,07,27,3.10
2020,01,27,07,28,3.10
2020,01,27,07,29,3.00
2020,01,27,07,30,3.00
2020,01,27,07,31,2.90
2020,01,27,07,32,2.90
2020,01,27,07,33,2.90
2020,01,27,07,34,2.80
2020,01,27,07,35,2.80
2020,01,27,07,36,2.80
2020,01,27,07,37,2.80
2020,01,27,07,38,2.80
2020,01,27,07,39,2.80
2020,01,27,07,40,2.80
2020,01,27,07,41,2.70
2020,01,27,07,42,2.70
2020,01,27,07,43,2.60
2020,01,27,07,44,2.60
2020,01,27,07,45,2.60
2020,01,27,07,46,2.60
2020,01,27,07,47,2.60
2020,01,27,07,48,2.50
2020,01,27,07,49,2.50
2020,01,27,07,50,2.50
2020,01,27,07,51,2.60
2020,01,27,07,52,2.60
2020,01,27,07,53,2.60
2020,01,27,07,54,2.60
2020,01,27,07,55,2.60
2020,01,27,07,56,2.60
2020,01,27,07,57,2.60
2020,01,27,07,58,2.60
2020,01,27,07,59,2.60
2020,01,27,08,00,2.50
2020,01,27,08,01,2.50
2020,01,27,08,02,2.50
2020,01,27,08,03,2.50
2020,01,27,08,04,2.60
2020,01,27,08,05,2.60
2020,01,27,08,06,2.70
2020,01,27,08,07,2.70
2020,01,27,08,08,2.60
2020,01,27,08,09,2.60
2020,01,27,08,10,2.50
2020,01,27,08,11,2.40
2020,01,27,08,12,2.40
2020,01,27,08,13,2.40
2020,01,27,08,14,2.40
2020,01,27,08,15,2.40
2020,01,27,08,16,2.40
2020,01,27,08,17,2.40
2020,01,27,08,18,2.40
2020,01,27,08,19,2.40
2020,01,27,08,20,2.40
2020,01,27,08,21,2.50
2020,01,27,08,22,2.50
2020,01,27,08,23,2.50
2020,01,27,08,24,2.60
2020,01,27,08,25,2.60
2020,01,27,08,26,2.60
2020,01,27,08,27,2.60
2020,01,27,08,28,2.60
2020,01,27,08,29,2.50
2020,01,27,08,30,2.50
2020,01,27,08,31,2.60
2020,01,27,08,32,2.60
2020,01,27,08,33,2.60
2020,01,27,08,34,2.60
2020,01,27,08,35,2.60
2020,01,27,08,36,2.60
2020,01,27,08,37,2.60
2020,01,27,08,38,2.60
2020,01,27,08,39,2.60
2020,01,27,08,40,2.60
2020,01,27,08,41,2.60
2020,01,27,08,42,2.60
2020,01,27,08,43,2.60
2020,01,27,08,44,2.60
2020,01,27,08,45,2.60
2020,01,27,08,46,2.60
2020,01,27,08,47,2.60
2020,01,27,08,48,2.60
2020,01,27,08,49,2.60
2020,01,27,08,50,2.70
2020,01,27,08,51,2.70
2020,01,27,08,52,2.70
2020,01,27,08,53,2.70
2020,01,27,08,54,2.70
2020,01,27,08,55,2.80
2020,01,27,08,56,2.80
2020,01,27,08,57,2.90
2020,01,27,08,58,2.90
2020,01,27,08,59,3.00
2020,01,27,09,00,3.10
2020,01,27,09,01,3.10
2020,01,27,09,02,3.10
2020,01,27,09,03,3.20
2020,01,27,09,04,3.20
2020,01,27,09,05,3.20
2020,01,27,09,06,3.20
2020,01,27,09,07,3.20
2020,01,27,09,08,3.20
2020,01,27,09,09,3.20
2020,01,27,09,10,3.20
2020,01,27,09,11,3.20
2020,01,27,09,12,3.20
2020,01,27,09,13,3.20
2020,01,27,09,14,3.20
2020,01,27,09,15,3.20
2020,01,27,09,16,3.20
2020,01,27,09,17,3.20
2020,01,27,09,18,3.20
2020,01,27,09,19,3.20
2020,01,27,09,20,3.20
2020,01,27,09,21,3.20
2020,01,27,09,22,3.20
2020,01,27,09,23,3.30
2020,01,27,09,24,3.30
2020,01,27,09,25,3.30
2020,01,27,09,26,3.30
2020,01,27,09,27,3.40
2020,01,27,09,28,3.40
2020,01,27,09,29,3.40
2020,01,27,09,30,3.50
2020,01,27,09,31,3.60
2020,01,27,09,32,3.70
2020,01,27,09,33,3.70
2020,01,27,09,34,3.80
2020,01,27,09,35,3.80
2020,01,27,09,36,3.90
2020,01,27,09,37,4.00
2020,01,27,09,38,4.10
2020,01,27,09,39,4.10
2020,01,27,09,40,4.30
2020,01,27,09,41,4.30
2020,01,27,09,42,4.50
2020,01,27,09,43,4.60
2020,01,27,09,44,4.70
2020,01,27,09,45,4.80
2020,01,27,09,46,4.90
2020,01,27,09,47,5.00
2020,01,27,09,48,5.20
2020,01,27,09,49,5.30
2020,01,27,09,50,5.50
2020,01,27,09,51,5.60
2020,01,27,09,52,5.70
2020,01,27,09,53,5.80
2020,01,27,09,54,5.90
2020,01,27,09,55,6.00
2020,01,27,09,56,6.10
2020,01,27,09,57,6.20
2020,01,27,09,58,6.20
2020,01,27,09,59,6.30
2020,01,27,10,00,6.30
2020,01,27,10,01,6.30
2020,01,27,10,02,6.30
2020,01,27,10,03,6.30
2020,01,27,10,04,6.30
2020,01,27,10,05,6.20
2020,01,27,10,06,6.20
2020,01,27,10,07,6.20
2020,01,27,10,08,6.20
2020,01,27,10,09,6.20
2020,01,27,10,10,6.20
2020,01,27,10,11,6.10
2020,01,27,10,12,6.10
2020,01,27,10,13,6.10
2020,01,27,10,14,6.10
2020,01,27,10,15,6.10
2020,01,27,10,16,6.20
2020,01,27,10,17,6.20
2020,01,27,10,18,6.20
2020,01,27,10,19,6.20
2020,01,27,10,20,6.20
2020,01,27,10,21,6.30
2020,01,27,10,22,6.30
2020,01,27,10,23,6.30
2020,01,27,10,24,6.30
2020,01,27,10,25,6.30
2020,01,27,10,26,6.30
2020,01,27,10,27,6.30
2020,01,27,10,28,6.30
2020,01,27,10,29,6.30
2020,01,27,10,30,6.20
2020,01,27,10,31,6.20
2020,01,27,10,32,6.20
2020,01,27,10,33,6.20
2020,01,27,10,34,6.20
2020,01,27,10,35,6.20
2020,01,27,10,36,6.20
2020,01,27,10,37,6.20
2020,01,27,10,38,6.30
2020,01,27,10,39,6.30
2020,01,27,10,40,6.40
2020,01,27,10,41,6.40
2020,01,27,10,42,6.50
2020,01,27,10,43,6.50
2020,01,27,10,44,6.60
2020,01,27,10,45,6.60
2020,01,27,10,46,6.70
2020,01,27,10,47,6.70
2020,01,27,10,48,6.80
2020,01,27,10,49,6.80
2020,01,27,10,50,6.80
2020,01,27,10,51,6.80
2020,01,27,10,52,6.90
2020,01,27,10,53,6.90
2020,01,27,10,54,7.00
2020,01,27,10,55,7.00
2020,01,27,10,56,7.00
2020,01,27,10,57,7.10
2020,01,27,10,58,7.10
2020,01,27,10,59,7.10
2020,01,27,11,00,7.20
2020,01,27,11,01,7.20
2020,01,27,11,02,7.30
2020,01,27,11,03,7.30
2020,01,27,11,04,7.40
2020,01,27,11,05,7.40
2020,01,27,11,06,7.50
2020,01,27,11,07,7.60
2020,01,27,11,08,7.60
2020,01,27,11,09,7.70
2020,01,27,11,10,7.70
2020,01,27,11,11,7.80
2020,01,27,11,12,7.80
2020,01,27,11,13,7.90
2020,01,27,11,14,7.90
2020,01,27,11,15,8.00
2020,01,27,11,16,8.00
2020,01,27,11,17,8.10
2020,01,27,11,18,8.10
2020,01,27,11,19,8.20
2020,01,27,11,20,8.20
2020,01,27,11,21,8.30
2020,01,27,11,22,8.30
2020,01,27,11,23,8.40
2020,01,27,11,24,8.40
2020,01,27,11,25,8.40
2020,01,27,11,26,8.40
2020,01,27,11,27,8.40
2020,01,27,11,28,8.40
2020,01,27,11,29,8.40
2020,01,27,11,30,8.40
2020,01,27,11,31,8.40
2020,01,27,11,32,8.40
2020,01,27,11,33,8.40
2020,01,27,11,34,8.40
2020,01,27,11,35,8.40
2020,01,27,11,36,8.40
2020,01,27,11,37,8.40
2020,01,27,11,38,8.40
2020,01,27,11,39,8.40
2020,01,27,11,40,8.40
2020,01,27,11,41,8.40
2020,01,27,11,42,8.40
2020,01,27,11,43,8.30
2020,01,27,11,44,8.40
2020,01,27,11,45,8.30
2020,01,27,11,46,8.30
2020,01,27,11,47,8.40
2020,01,27,11,48,8.40
2020,01,27,11,49,8.40
2020,01,27,11,50,8.40
2020,01,27,11,51,8.40
2020,01,27,11,52,8.50
2020,01,27,11,53,8.50
2020,01,27,11,54,8.50
2020,01,27,11,55,8.60
2020,01,27,11,56,8.60
2020,01,27,11,57,8.60
2020,01,27,11,58,8.60
2020,01,27,11,59,8.60
2020,01,27,12,00,8.60
2020,01,27,12,01,8.60
2020,01,27,12,02,8.70
2020,01,27,12,03,8.70
2020,01,27,12,04,8.70
2020,01,27,12,05,8.70
2020,01,27,12,06,8.70
2020,01,27,12,07,8.70
2020,01,27,12,08,8.70
2020,01,27,12,09,8.70
2020,01,27,12,10,8.70
2020,01,27,12,11,8.70
2020,01,27,12,12,8.70
2020,01,27,12,13,8.70
2020,01,27,12,14,8.70
2020,01,27,12,15,8.70
2020,01,27,12,16,8.70
2020,01,27,12,17,8.70
2020,01,27,12,18,8.70
2020,01,27,12,19,8.80
2020,01,27,12,20,8.80
2020,01,27,12,21,8.80
2020,01,27,12,22,8.90
2020,01,27,12,23,8.90
2020,01,27,12,24,9.00
2020,01,27,12,25,9.00
2020,01,27,12,26,9.10
2020,01,27,12,27,9.20
2020,01,27,12,28,9.30
2020,01,27,12,29,9.30
2020,01,27,12,30,9.40
2020,01,27,12,31,9.40
2020,01,27,12,32,9.50
2020,01,27,12,33,9.60
2020,01,27,12,34,9.60
2020,01,27,12,35,9.60
2020,01,27,12,36,9.60
2020,01,27,12,37,9.70
2020,01,27,12,38,9.70
2020,01,27,12,39,9.70
2020,01,27,12,40,9.70
2020,01,27,12,41,9.70
2020,01,27,12,42,9.70
2020,01,27,12,43,9.70
2020,01,27,12,44,9.70
2020,01,27,12,45,9.70
2020,01,27,12,46,9.70
2020,01,27,12,47,9.70
2020,01,27,12,48,9.70
2020,01,27,12,49,9.80
2020,01,27,12,50,9.70
2020,01,27,12,51,9.70
2020,01,27,12,52,9.70
2020,01,27,12,53,9.80
2020,01,27,12,54,9.80
2020,01,27,12,55,9.80
2020,01,27,12,56,9.80
2020,01,27,12,57,9.80
2020,01,27,12,58,9.80
2020,01,27,12,59,9.80
2020,01,27,13,00,9.80
2020,01,27,13,01,9.80
2020,01,27,13,02,9.80
2020,01,27,13,03,9.80
2020,01,27,13,04,9.80
2020,01,27,13,05,9.80
2020,01,27,13,06,9.80
2020,01,27,13,07,9.80
2020,01,27,13,08,9.80
2020,01,27,13,09,9.80
2020,01,27,13,10,9.80
2020,01,27,13,11,9.80
2020,01,27,13,12,9.80
2020,01,27,13,13,9.80
2020,01,27,13,14,9.80
2020,01,27,13,15,9.80
2020,01,27,13,16,9.80
2020,01,27,13,17,9.80
2020,01,27,13,18,9.70
2020,01,27,13,19,9.70
2020,01,27,13,20,9.60
2020,01,27,13,21,9.60
2020,01,27,13,22,9.60
2020,01,27,13,23,9.50
2020,01,27,13,24,9.50
2020,01,27,13,25,9.50
2020,01,27,13,26,9.50
2020,01,27,13,27,9.40
2020,01,27,13,28,9.40
2020,01,27,13,29,9.40
2020,01,27,13,30,9.40
2020,01,27,13,31,9.30
2020,01,27,13,32,9.30
2020,01,27,13,33,9.30
2020,01,27,13,34,9.30
2020,01,27,13,35,9.30
2020,01,27,13,36,9.30
2020,01,27,13,37,9.20
2020,01,27,13,38,9.20
2020,01,27,13,39,9.20
2020,01,27,13,40,9.20
2020,01,27,13,41,9.20
2020,01,27,13,42,9.20
2020,01,27,13,43,9.20
2020,01,27,13,44,9.10
2020,01,27,13,45,9.10
2020,01,27,13,46,9.10
2020,01,27,13,47,9.00
2020,01,27,13,48,9.00
2020,01,27,13,49,8.90
2020,01,27,13,50,8.90
2020,01,27,13,51,8.90
2020,01,27,13,52,8.80
2020,01,27,13,53,8.80
2020,01,27,13,54,8.80
2020,01,27,13,55,8.80
2020,01,27,13,56,8.80
2020,01,27,13,57,8.70
2020,01,27,13,58,8.70
2020,01,27,13,59,8.70
2020,01,27,14,00,8.70
2020,01,27,14,01,8.70
2020,01,27,14,02,8.70
2020,01,27,14,03,8.70
2020,01,27,14,04,8.60
2020,01,27,14,05,8.60
2020,01,27,14,06,8.60
2020,01,27,14,07,8.60
2020,01,27,14,08,8.60
2020,01,27,14,09,8.60
2020,01,27,14,10,8.60
2020,01,27,14,11,8.50
2020,01,27,14,12,8.60
2020,01,27,14,13,8.50
2020,01,27,14,14,8.60
2020,01,27,14,15,8.60
2020,01,27,14,16,8.60
2020,01,27,14,17,8.60
2020,01,27,14,18,8.60
2020,01,27,14,19,8.60
2020,01,27,14,20,8.60
2020,01,27,14,21,8.60
2020,01,27,14,22,8.50
2020,01,27,14,23,8.60
2020,01,27,14,24,8.60
2020,01,27,14,25,8.50
2020,01,27,14,26,8.50
2020,01,27,14,27,8.50
2020,01,27,14,28,8.50
2020,01,27,14,29,8.50
2020,01,27,14,30,8.50
2020,01,27,14,31,8.50
2020,01,27,14,32,8.40
2020,01,27,14,33,8.40
2020,01,27,14,34,8.40
2020,01,27,14,35,8.40
2020,01,27,14,36,8.40
2020,01,27,14,37,8.40
2020,01,27,14,38,8.40
2020,01,27,14,39,8.40
2020,01,27,14,40,8.40
2020,01,27,14,41,8.40
2020,01,27,14,42,8.40
2020,01,27,14,43,8.30
2020,01,27,14,44,8.40
2020,01,27,14,45,8.30
2020,01,27,14,46,8.40
2020,01,27,14,47,8.40
2020,01,27,14,48,8.30
2020,01,27,14,49,8.40
2020,01,27,14,50,8.40
2020,01,27,14,51,8.30
2020,01,27,14,52,8.30
2020,01,27,14,53,8.30
2020,01,27,14,54,8.30
2020,01,27,14,55,8.30
2020,01,27,14,56,8.30
2020,01,27,14,57,8.30
2020,01,27,14,58,8.20
2020,01,27,14,59,8.20
2020,01,27,15,00,8.20
2020,01,27,15,01,8.20
2020,01,27,15,02,8.20
2020,01,27,15,03,8.20
2020,01,27,15,04,8.20
2020,01,27,15,05,8.20
2020,01,27,15,06,8.10
2020,01,27,15,07,8.10
2020,01,27,15,08,8.10
2020,01,27,15,09,8.10
2020,01,27,15,10,8.10
2020,01,27,15,11,8.10
2020,01,27,15,12,8.10
2020,01,27,15,13,8.10
2020,01,27,15,14,8.10
2020,01,27,15,15,8.10
2020,01,27,15,16,8.10
2020,01,27,15,17,8.10
2020,01,27,15,18,8.10
2020,01,27,15,19,8.10
2020,01,27,15,20,8.10
2020,01,27,15,21,8.00
2020,01,27,15,22,8.10
2020,01,27,15,23,8.00
2020,01,27,15,24,8.00
2020,01,27,15,25,8.00
2020,01,27,15,26,8.00
2020,01,27,15,27,8.00
2020,01,27,15,28,8.00
2020,01,27,15,29,8.00
2020,01,27,15,30,8.00
2020,01,27,15,31,7.90
2020,01,27,15,32,7.90
2020,01,27,15,33,7.90
2020,01,27,15,34,7.90
2020,01,27,15,35,7.90
2020,01,27,15,36,7.90
2020,01,27,15,37,7.90
2020,01,27,15,38,7.90
2020,01,27,15,39,7.90
2020,01,27,15,40,7.90
2020,01,27,15,41,7.90
2020,01,27,15,42,7.90
2020,01,27,15,43,7.90
2020,01,27,15,44,7.90
2020,01,27,15,45,7.80
2020,01,27,15,46,7.90
2020,01,27,15,47,7.90
2020,01,27,15,48,7.90
2020,01,27,15,49,7.90
2020,01,27,15,50,7.80
2020,01,27,15,51,7.80
2020,01,27,15,52,7.80
2020,01,27,15,53,7.80
2020,01,27,15,54,7.80
2020,01,27,15,55,7.80
2020,01,27,15,56,7.80
2020,01,27,15,57,7.80
2020,01,27,15,58,7.80
2020,01,27,15,59,7.80
2020,01,27,16,00,7.80
2020,01,27,16,01,7.80
2020,01,27,16,02,7.80
2020,01,27,16,03,7.80
2020,01,27,16,04,7.80
2020,01,27,16,05,7.80
2020,01,27,16,06,7.70
2020,01,27,16,07,7.70
2020,01,27,16,08,7.80
2020,01,27,16,09,7.70
2020,01,27,16,10,7.70
2020,01,27,16,11,7.70
2020,01,27,16,12,7.70
2020,01,27,16,13,7.70
2020,01,27,16,14,7.70
2020,01,27,16,15,7.70
2020,01,27,16,16,7.70
2020,01,27,16,17,7.70
2020,01,27,16,18,7.70
2020,01,27,16,19,7.70
2020,01,27,16,20,7.70
2020,01,27,16,21,7.70
2020,01,27,16,22,7.70
2020,01,27,16,23,7.60
2020,01,27,16,24,7.60
2020,01,27,16,25,7.60
2020,01,27,16,26,7.60
2020,01,27,16,27,7.60
2020,01,27,16,28,7.60
2020,01,27,16,29,7.60
2020,01,27,16,30,7.60
2020,01,27,16,31,7.60
2020,01,27,16,32,7.60
2020,01,27,16,33,7.60
2020,01,27,16,34,7.60
2020,01,27,16,35,7.60
2020,01,27,16,36,7.60
2020,01,27,16,37,7.60
2020,01,27,16,38,7.50
2020,01,27,16,39,7.50
2020,01,27,16,40,7.50
2020,01,27,16,41,7.50
2020,01,27,16,42,7.50
2020,01,27,16,43,7.40
2020,01,27,16,44,7.40
2020,01,27,16,45,7.40
2020,01,27,16,46,7.40
2020,01,27,16,47,7.40
2020,01,27,16,48,7.40
2020,01,27,16,49,7.30
2020,01,27,16,50,7.30
2020,01,27,16,51,7.30
2020,01,27,16,52,7.30
2020,01,27,16,53,7.30
2020,01,27,16,54,7.30
2020,01,27,16,55,7.30
2020,01,27,16,56,7.30
2020,01,27,16,57,7.30
2020,01,27,16,58,7.20
2020,01,27,16,59,7.20
2020,01,27,17,00,7.20
2020,01,27,17,01,7.20
2020,01,27,17,02,7.20
2020,01,27,17,03,7.20
2020,01,27,17,04,7.10
2020,01,27,17,05,7.10
2020,01,27,17,06,7.10
2020,01,27,17,07,7.10
2020,01,27,17,08,7.10
2020,01,27,17,09,7.10
2020,01,27,17,10,7.10
2020,01,27,17,11,7.10
2020,01,27,17,12,7.10
2020,01,27,17,13,7.10
2020,01,27,17,14,7.10
2020,01,27,17,15,7.10
2020,01,27,17,16,7.10
2020,01,27,17,17,7.00
2020,01,27,17,18,7.10
2020,01,27,17,19,7.00
2020,01,27,17,20,7.00
2020,01,27,17,21,7.00
2020,01,27,17,22,7.00
2020,01,27,17,23,6.90
2020,01,27,17,24,6.90
2020,01,27,17,25,6.90
2020,01,27,17,26,6.90
2020,01,27,17,27,6.90
2020,01,27,17,28,6.90
2020,01,27,17,29,6.90
2020,01,27,17,30,6.90
2020,01,27,17,31,6.90
2020,01,27,17,32,6.90
2020,01,27,17,33,6.90
2020,01,27,17,34,6.90
2020,01,27,17,35,6.90
2020,01,27,17,36,6.90
2020,01,27,17,37,6.90
2020,01,27,17,38,6.80
2020,01,27,17,39,6.80
2020,01,27,17,40,6.80
2020,01,27,17,41,6.80
2020,01,27,17,42,6.80
2020,01,27,17,43,6.80
2020,01,27,17,44,6.80
2020,01,27,17,45,6.80
2020,01,27,17,46,6.80
2020,01,27,17,47,6.80
2020,01,27,17,48,6.80
2020,01,27,17,49,6.80
2020,01,27,17,50,6.80
2020,01,27,17,51,6.80
2020,01,27,17,52,6.70
2020,01,27,17,53,6.70
2020,01,27,17,54,6.70
2020,01,27,17,55,6.70
2020,01,27,17,56,6.70
2020,01,27,17,57,6.70
2020,01,27,17,58,6.70
2020,01,27,17,59,6.70
2020,01,27,18,00,6.70
2020,01,27,18,01,6.70
2020,01,27,18,02,6.70
2020,01,27,18,03,6.70
2020,01,27,18,04,6.70
2020,01,27,18,05,6.70
2020,01,27,18,06,6.70